Home   Weather   Szczecin   Past weeks

Flag for Poland Past Weather in Szczecin, Poland — Yesterday and Last 2 Weeks

Now
39 °F

Light rain. Fog.


Feels Like: 34 °F
Forecast: 41 / 48 °F
Wind: 8 mph from Southwest

Location: Szczecin Airport

Current Time: Feb 19, 2017 at 5:44:58 pm

Latest Report: Feb 19, 2017 at 5:00 pm


Visibility: 3 mi

Pressure: 29.98 "Hg

Humidity: 93%

Dew Point: 37 °F

Location of SzczecinLocation

Past Weather in Szczecin — Graph

°F

Szczecin Temperature Yesterday

Maximum temperature yesterday: 37 °F (at 12:00 am)
Minimum temperature yesterday: 36 °F (at 5:00 pm)
Average temperature yesterday: 37 °F

High & Low Weather Summary for the Past Weeks

 TemperatureHumidityPressure
High50 °F (Feb 15, 1:30 pm)100% (Feb 4, 4:00 pm)30.72 "Hg (Feb 4, 4:00 pm)
Low16 °F (Feb 14, 4:00 am)21% (Feb 15, 1:00 pm)29.68 "Hg (Feb 4, 4:00 pm)
Average29 °F79%30.33 "Hg
* Reported Feb 4 4:00 pm — Feb 19 4:30 pm, Szczecin, Weather by CustomWeather, © 2017

Note: Actual official high and low records may vary slightly from our data, if they occured in-between our weather recording intervals... More about our weather records

Advertising

Szczecin Weather History for the Previous 24 Hours

Scroll right to see more
 ConditionsComfort  
Time TempWeatherWind HumidityBarometerVisibility
4:30 pm
Sun, Feb 19
39 °FLight rain. Fog.9 mph93%29.98 "Hg3 mi
4:00 pm39 °FLight rain. Low clouds.9 mph87%29.98 "Hg4 mi
3:30 pm41 °FLight rain. Fog.13 mph81%29.98 "Hg3 mi
3:00 pm43 °FPartly sunny.9 mph71%29.98 "HgN/A
2:30 pm43 °FPartly sunny.13 mph71%29.98 "HgN/A
2:00 pm43 °FPartly sunny.10 mph76%30.01 "HgN/A
1:30 pm43 °FPartly sunny.13 mph76%30.01 "HgN/A
1:00 pm43 °FScattered clouds.12 mph76%30.01 "HgN/A
12:30 pm43 °FPassing clouds.12 mph76%30.04 "HgN/A
12:00 pm41 °FPassing clouds.10 mph76%30.04 "HgN/A
11:30 am39 °FSunny.10 mph81%30.07 "Hg10 mi
11:00 am39 °FSunny.10 mph81%30.07 "Hg10 mi
10:30 am39 °FPassing clouds.10 mph81%30.07 "HgN/A
10:00 am39 °FPassing clouds.12 mph81%30.07 "HgN/A
9:30 am39 °FPassing clouds.10 mph81%30.07 "HgN/A
9:00 am37 °FPassing clouds.10 mph87%30.09 "HgN/A
8:30 am37 °FPassing clouds.9 mph87%30.09 "HgN/A
8:00 am36 °FPassing clouds.8 mph93%30.09 "HgN/A
7:30 am36 °FPassing clouds.5 mph87%30.09 "HgN/A
7:00 am36 °FPassing clouds.7 mph87%30.09 "HgN/A
6:30 am36 °FPassing clouds.8 mph87%30.09 "HgN/A
6:00 am36 °FOvercast.8 mph87%30.12 "HgN/A
5:30 am36 °FOvercast.6 mph87%30.12 "HgN/A
5:00 am36 °FOvercast.7 mph87%30.12 "HgN/A
4:30 am36 °FOvercast.7 mph87%30.12 "HgN/A
4:00 am36 °FMostly cloudy.6 mph87%30.15 "HgN/A
3:30 am36 °FLow clouds.8 mph87%30.15 "HgN/A
3:00 am36 °FLow clouds.6 mph93%30.15 "HgN/A
2:30 am36 °FLow clouds.7 mph93%30.18 "HgN/A
2:00 am36 °FMostly cloudy.6 mph93%30.18 "HgN/A
1:30 am36 °FOvercast.6 mph93%30.18 "HgN/A
1:00 am36 °FOvercast.5 mph93%30.18 "HgN/A
12:30 am36 °FOvercast.3 mph93%30.21 "HgN/A
12:00 am36 °FMostly cloudy.3 mph93%30.21 "HgN/A
11:30 pm
Sat, Feb 18
36 °FOvercast.3 mph93%30.21 "HgN/A
11:00 pm36 °FMostly cloudy.3 mph93%30.21 "HgN/A
10:30 pm36 °FMostly cloudy.3 mph93%30.21 "HgN/A
10:00 pm36 °FPartly cloudy.3 mph93%30.21 "HgN/A
9:30 pm36 °FOvercast.3 mph93%30.21 "HgN/A
9:00 pm36 °FOvercast.5 mph93%30.21 "HgN/A
8:30 pm36 °FMostly cloudy.6 mph93%30.21 "HgN/A
8:00 pm36 °FOvercast.5 mph93%30.21 "HgN/A
7:30 pm36 °FFog.3 mph100%30.21 "Hg3 mi
7:00 pm36 °FOvercast.3 mph100%30.24 "Hg4 mi
6:30 pm36 °FMostly cloudy.2 mph100%30.24 "Hg5 mi
6:00 pm37 °FPartly cloudy.5 mph93%30.24 "Hg5 mi
5:30 pm36 °FPassing clouds.5 mph100%30.21 "Hg5 mi
5:00 pm36 °FPartly sunny.6 mph100%30.21 "HgN/A
Weather by CustomWeather, © 2017

See weather overviewHow to use our weather pages